Regional Weather Roundup
Issued by NWS Newport/Morehead, NC

Current Version | Previous Version | Text Only | Print | Product List | Glossary Off
Versions: 1 2 3 4 5 6 7 8 9 10 11 12 13 14 15 16 17 18 19 20 21 22 23 24 25 26 27 28 29 30 31 32 33 34 35 36 37 38 39 40 41 42 43 44 45 46
000 ASUS42 KMHX 181425 RWRMHX WEATHER ROUNDUP FOR EASTERN NORTH CAROLINA NATIONAL WEATHER SERVICE NEWPORT/MOREHEAD CITY NC 1000 AM EDT FRI AUG 18 2017 NOTE: "FAIR" INDICATES FEW OR NO CLOUDS BELOW 12,000 FEET WITH NO SIGNIFICANT WEATHER AND/OR OBSTRUCTIONS TO VISIBILITY NCZ015>017-031-032-045>047-102-103-181500- NORTH COAST CITY SKY/WX TMP DP RH WIND PRES REMARKS EDENTON PTSUNNY 86 80 83 CALM 29.95S HX 101 ELIZABETH CITY MOSUNNY 86 81 85 SW10 29.94S HX 102 KITTY HAWK SUNNY 86 78 76 CALM 29.94S MANTEO MOSUNNY 87 78 76 SW8 29.95S HX 100 $$ NCZ045>047-081-094-103-104-181500- CENTRAL COAST CITY SKY/WX TMP DP RH WIND PRES REMARKS FRISCO SUNNY 87 82 85 SW9 29.97S HX 106 $$ NCZ095-097-098-100-101-181500- SOUTHERN COAST CITY SKY/WX TMP DP RH WIND PRES REMARKS BEAUFORT CLOUDY 85 82 91 SW14 29.97R HX 102 CEDAR ISLAND NOT AVBL JACKSONVILLE MOSUNNY 87 81 82 SW7 29.95S HX 104 PINEY ISLAND MOSUNNY N/A N/A N/A SW9 29.96R WILMINGTON SUNNY 88 80 77 W9 29.96S HX 104 $$ NCZ011>013-027>030-043-044-078>080-089-090>093-098-181500- COASTAL PLAIN CITY SKY/WX TMP DP RH WIND PRES REMARKS AHOSKIE N/A 80 78 94 CALM 29.94S CLINTON SUNNY 84 80 87 S3 29.96S ELIZABETHTOWN NOT AVBL GOLDSBORO MOSUNNY 84 84 100 SW5 29.94R HX 104 GREENVILLE MOSUNNY 86 79 79 SW7 29.96F HAVELOCK SUNNY 90 79 70 SW10 29.96 HX 106 KENANSVILLE SUNNY 86 79 79 S3 29.96S KINSTON SUNNY 86 77 74 SW5 29.96S NEW BERN MOSUNNY 88 81 79 SW8 29.96S HX 106 RICHLANDS SUNNY 88 80 77 SW7 29.96S HX 104 ROCKY MOUNT MOSUNNY 84 79 85 S6 29.95S WASHINGTON MOSUNNY 85 79 83 W7 29.95S WHITEVILLE SUNNY 86 78 76 SW3 29.97S $$ AMZ130-135-150-152-154-156-158-170-250-252-270-ANZ085-086-088-633-658-670-181500- MARINE OBSERVATIONS STATION/POSITION TIME TEMP WIND PRES WAVE SWELL AIR SEA DIR/SP/G HT/PER HT/PER (UTC) (F) (DEG/KT/KT) (MB) (FT/S) (FT/S) CHESAPEAKE LIGHT NOT AVBL 64 E VA BEACH 1350 79 77 180/ 10/ 10 1014.7 3/ 8 2/ 8 DUCK 1400 84 72 200/ 10/ 12 1013.6 2 E DUCK 1330 78 N/A 2/ 8 OREGON INLET 1400 83 83 190/ 12/ 15 1014.2 13E OREGON INLT 1348 80 N/A 3/ 4 2/ 8 HATTERAS CG 1400 85 83 210/ 8/ 12 1014.8 DIAMOND BUOY 1350 84 86 210/ 12/ 14 1014.8 2/ 8 2/ 8 CAPE LOOKOUT 1400 85 210/ 9/ 12 1014.4 BEAUFORT LAB 1400 85 81 200/ 9/ 14 1014.1 30 SE NEW RVR IN 1408 84 83 220/ 12/ 14 1015.1 30 SE NEW RVR IN 1413 84 N/A 3/ 5 27 SE WRIGHTSVLE 1408 84 83 210/ 12/ 16 1015.1 5 SE WRIGHTSVLE 1408 85 84 230/ 8/ 12 1014.6 225 S CAPE HAT 1350 84 84 220/ 8/ 10 1016.9 3/ 5 2/ 5 41 SE CHARLESTON 1410 84 85 230/ 12/ 14 1015.7 $$

USA.gov is the U.S. government's official web portal to all federal, state and local government web resources and services.